Weather reports worldwide

Advertisment
Treviso/S. Angelo, Italy (16099): temperature & dewpoint: 11.07.2019 07:00:00 - 17.07.2019 07:00:00 (CEST)Treviso/S. Angelo, Italy (16099): wind speed: 11.07.2019 07:00:00 - 17.07.2019 07:00:00 (CEST)Treviso/S. Angelo, Italy (16099): wind direction: 11.07.2019 07:00:00 - 17.07.2019 07:00:00 (CEST)Treviso/S. Angelo, Italy (16099): reduced air pressure: 11.07.2019 07:00:00 - 17.07.2019 07:00:00 (CEST)Treviso/S. Angelo, Italy (16099): visibility: 11.07.2019 07:00:00 - 17.07.2019 07:00:00 (CEST)Treviso/S. Angelo, Italy (16099): precipitation: 11.07.2019 07:00:00 - 17.07.2019 07:00:00 (CEST)
Date & Time tt [°C] td [°C] ff [km/h] ff [kn] dd ppp [hPa] vv [km] rr [mm]
17.07.2019 07:00:00 - - - - - - - -
17.07.2019 06:00:00 - - - - - - - -
17.07.2019 05:00:00 18,0 16,1 4 2 N 1013,1 - 0,0
17.07.2019 04:00:00 - - - - - - - -
17.07.2019 03:00:00 - - - - - - - -
17.07.2019 02:00:00 19,6 15,8 4 2 N 1013,4 - -
17.07.2019 01:00:00 - - - - - - - -
17.07.2019 00:00:00 - - - - - - - -
16.07.2019 23:00:00 21,7 15,4 4 2 SSW 1012,9 25 0,0
16.07.2019 22:00:00 - - - - - - - -
16.07.2019 21:00:00 - - - - - - - -
16.07.2019 20:00:00 27,5 13,8 8 4 SW 1012,0 25 -
16.07.2019 19:00:00 - - - - - - - -
16.07.2019 18:00:00 - - - - - - - -
16.07.2019 17:00:00 28,8 12,2 11 6 SW 1012,6 25 0,0
16.07.2019 16:00:00 - - - - - - - -
16.07.2019 15:00:00 - - - - - - - -
16.07.2019 14:00:00 27,9 12,6 8 4 - 1013,6 10 -
16.07.2019 13:00:00 - - - - - - - -
16.07.2019 12:00:00 - - - - - - - -
16.07.2019 11:00:00 26,0 10,9 8 4 E 1014,1 10 0,0
16.07.2019 10:00:00 - - - - - - - -
16.07.2019 09:00:00 - - - - - - - -
16.07.2019 08:00:00 21,8 14,9 4 2 N 1013,8 10 -
16.07.2019 07:00:00 - - - - - - - -
16.07.2019 06:00:00 - - - - - - - -
16.07.2019 05:00:00 18,1 13,5 5 3 N 1013,2 - 0,0
16.07.2019 04:00:00 - - - - - - - -
16.07.2019 03:00:00 - - - - - - - -
16.07.2019 02:00:00 19,6 14,4 8 4 N 1013,5 - -
16.07.2019 01:00:00 - - - - - - - -
16.07.2019 00:00:00 - - - - - - - -
15.07.2019 23:00:00 20,0 16,1 4 2 N 1013,1 10 0,0
15.07.2019 22:00:00 - - - - - - - -
15.07.2019 21:00:00 - - - - - - - -
15.07.2019 20:00:00 22,5 14,3 13 7 N 1012,0 10 -
15.07.2019 19:00:00 - - - - - - - -
15.07.2019 18:00:00 - - - - - - - -
15.07.2019 17:00:00 26,7 12,5 9 5 SE 1010,8 10 0,0
15.07.2019 16:00:00 - - - - - - - -
15.07.2019 15:00:00 - - - - - - - -
15.07.2019 14:00:00 24,8 13,6 11 6 E 1011,4 50 -
15.07.2019 13:00:00 - - - - - - - -
15.07.2019 12:00:00 - - - - - - - -
15.07.2019 11:00:00 22,4 13,8 11 6 NE 1011,4 50 0,0
15.07.2019 10:00:00 - - - - - - - -
15.07.2019 09:00:00 - - - - - - - -
15.07.2019 08:00:00 20,7 12,7 9 5 NE 1010,8 50 -
15.07.2019 07:00:00 - - - - - - - -
15.07.2019 06:00:00 - - - - - - - -
15.07.2019 05:00:00 20,2 14,1 8 4 - 1010,6 - 0,0
15.07.2019 04:00:00 - - - - - - - -
15.07.2019 03:00:00 - - - - - - - -
15.07.2019 02:00:00 20,4 13,8 4 2 ENE 1011,3 - -
15.07.2019 01:00:00 - - - - - - - -
15.07.2019 00:00:00 - - - - - - - -
14.07.2019 23:00:00 21,4 14,5 8 4 NNE 1011,5 25 0,0
14.07.2019 22:00:00 - - - - - - - -
14.07.2019 21:00:00 - - - - - - - -
14.07.2019 20:00:00 25,4 14,8 5 3 SE 1010,4 20 -
14.07.2019 19:00:00 - - - - - - - -
14.07.2019 18:00:00 - - - - - - - -
14.07.2019 17:00:00 27,5 15,0 5 3 SSE 1010,6 25 0,0
14.07.2019 16:00:00 - - - - - - - -
14.07.2019 15:00:00 - - - - - - - -
14.07.2019 14:00:00 26,3 13,9 5 3 - 1012,1 50 -
14.07.2019 13:00:00 - - - - - - - -
14.07.2019 12:00:00 - - - - - - - -
14.07.2019 11:00:00 23,9 13,1 2 1 N 1012,8 50 0,0
14.07.2019 10:00:00 - - - - - - - -
14.07.2019 09:00:00 - - - - - - - -
14.07.2019 08:00:00 18,3 15,0 2 1 N 1012,3 50 -
14.07.2019 07:00:00 - - - - - - - -
14.07.2019 06:00:00 - - - - - - - -
14.07.2019 05:00:00 14,5 14,4 4 2 E 1011,8 - 0,0
14.07.2019 04:00:00 - - - - - - - -
14.07.2019 03:00:00 - - - - - - - -
14.07.2019 02:00:00 15,8 15,3 4 2 WSW 1012,7 - -
14.07.2019 01:00:00 - - - - - - - -
14.07.2019 00:00:00 - - - - - - - -
13.07.2019 23:00:00 17,4 15,9 4 2 N 1013,0 50 0,0
13.07.2019 22:00:00 - - - - - - - -
13.07.2019 21:00:00 - - - - - - - -
13.07.2019 20:00:00 17,1 16,1 9 5 NNE 1012,1 50 -
13.07.2019 19:00:00 - - - - - - - -
13.07.2019 18:00:00 - - - - - - - -
13.07.2019 17:00:00 27,2 17,2 11 6 SSE 1009,1 50 0,0
13.07.2019 16:00:00 - - - - - - - -
13.07.2019 15:00:00 - - - - - - - -
13.07.2019 14:00:00 26,4 19,3 9 5 S 1010,4 20 -
13.07.2019 13:00:00 - - - - - - - -
13.07.2019 12:00:00 - - - - - - - -
13.07.2019 11:00:00 23,8 18,1 4 2 - 1010,6 20 0,0
13.07.2019 10:00:00 - - - - - - - -
13.07.2019 09:00:00 - - - - - - - -
13.07.2019 08:00:00 21,2 17,6 5 3 NE 1009,7 - -
13.07.2019 07:00:00 - - - - - - - -
13.07.2019 06:00:00 - - - - - - - -
13.07.2019 05:00:00 19,2 18,0 8 4 SE 1009,8 - 0,0
13.07.2019 04:00:00 - - - - - - - -
13.07.2019 03:00:00 - - - - - - - -
13.07.2019 02:00:00 19,8 18,6 8 4 WNW 1011,5 - -
13.07.2019 01:00:00 - - - - - - - -
13.07.2019 00:00:00 - - - - - - - -
12.07.2019 23:00:00 20,7 18,7 0 0 - 1011,2 20 0,0
12.07.2019 22:00:00 - - - - - - - -
12.07.2019 21:00:00 - - - - - - - -
12.07.2019 20:00:00 23,4 19,1 4 2 SSW 1011,0 25 -
12.07.2019 19:00:00 - - - - - - - -
12.07.2019 18:00:00 - - - - - - - -
12.07.2019 17:00:00 25,7 19,2 9 5 SE 1010,7 15 0,0
12.07.2019 16:00:00 - - - - - - - -
12.07.2019 15:00:00 - - - - - - - -
12.07.2019 14:00:00 26,2 17,3 5 3 WSW 1012,1 50 -
12.07.2019 13:00:00 - - - - - - - -
12.07.2019 12:00:00 - - - - - - - -
12.07.2019 11:00:00 24,4 16,5 4 2 N 1012,9 50 0,0
12.07.2019 10:00:00 - - - - - - - -
12.07.2019 09:00:00 - - - - - - - -
12.07.2019 08:00:00 18,8 16,9 5 3 N 1013,4 - -
12.07.2019 07:00:00 - - - - - - - -
12.07.2019 06:00:00 - - - - - - - -
12.07.2019 05:00:00 16,8 16,7 0 0 N 1012,9 - 0,0
12.07.2019 04:00:00 - - - - - - - -
12.07.2019 03:00:00 - - - - - - - -
12.07.2019 02:00:00 18,3 17,4 4 2 N 1013,3 - -
12.07.2019 01:00:00 - - - - - - - -
12.07.2019 00:00:00 - - - - - - - -
11.07.2019 23:00:00 20,6 16,8 11 6 NNE 1013,6 10 0,0
11.07.2019 22:00:00 - - - - - - - -
11.07.2019 21:00:00 - - - - - - - -
11.07.2019 20:00:00 23,1 13,2 5 3 E 1012,6 20 -
11.07.2019 19:00:00 - - - - - - - -
11.07.2019 18:00:00 - - - - - - - -
11.07.2019 17:00:00 24,9 14,3 13 7 SE 1012,7 15 0,0
11.07.2019 16:00:00 - - - - - - - -
11.07.2019 15:00:00 - - - - - - - -
11.07.2019 14:00:00 24,6 15,5 5 3 N 1014,0 25 -
11.07.2019 13:00:00 - - - - - - - -
11.07.2019 12:00:00 - - - - - - - -
11.07.2019 11:00:00 22,8 13,1 8 4 E 1015,3 25 0,0
11.07.2019 10:00:00 - - - - - - - -
11.07.2019 09:00:00 - - - - - - - -
11.07.2019 08:00:00 20,8 11,0 11 6 NE 1015,4 25 -
11.07.2019 07:00:00 - - - - - - - -

tt = temperature
td = dewpoint
ff = wind speed
dd = wind direction
ppp = reduced air pressure
vv = visibility
rr = precipitation

Next stations